Theta_e
335 334 334 332 336 337 336 334 332 332 331 329 323 315 314 315 319 324 327 330 331 331 330 329 329 328 328 327 327 327 327 326 327
334 334 330 331 337 337 336 332 331 331 329 328 323 316 316 317 320 324 326 328 329 329 328 328 329 328 327 327 326 326 326 326 326
334 332 333 334 337 336 333 331 330 330 329 330 327 321 319 318 319 322 325 328 328 327 327 328 328 327 327 326 326 326 325 325 325
335 335 334 336 337 334 332 331 329 330 329 330 330 328 323 321 322 322 324 327 328 327 326 327 327 326 326 325 325 325 324 325 325
336 334 334 334 334 332 332 331 329 330 330 330 330 330 329 326 323 323 324 326 327 326 326 326 326 326 325 325 324 324 324 324 323
333 332 332 328 330 330 330 327 327 329 330 330 330 330 330 329 325 324 324 325 324 323 324 324 325 325 324 324 324 323 323 323 323
326 326 327 327 326 325 324 323 324 329 330 329 330 330 330 329 327 326 325 326 324 322 321 320 322 324 324 324 323 322 322 322 322
324 325 325 326 326 326 325 324 323 325 329 329 328 329 330 329 328 327 326 326 326 324 322 321 320 320 322 324 323 322 322 321 321
322 321 322 321 322 322 323 322 326 326 327 328 326 327 328 328 328 328 327 326 327 326 325 324 322 321 321 321 321 321 321 320 320
330 327 326 325 325 323 320 324 326 326 326 324 324 323 325 326 327 327 326 326 327 327 327 326 325 324 322 321 319 320 320 320 319
332 331 330 330 329 329 330 330 331 332 330 328 327 325 321 323 324 325 325 326 326 326 330 330 328 327 326 323 321 320 320 319 317
334 334 333 332 331 331 332 333 333 333 332 331 331 330 327 322 322 323 324 326 327 327 326 331 330 330 329 327 325 323 321 319 318
332 334 334 333 333 333 333 333 333 332 331 329 328 329 328 326 323 323 325 327 327 328 327 327 327 327 328 328 327 326 324 323 322
330 331 332 333 334 334 334 334 333 330 328 328 327 326 326 326 324 323 324 325 327 327 328 327 327 327 326 326 325 327 326 325 323
330 330 330 330 334 335 334 333 331 329 329 328 328 327 328 328 327 328 327 327 328 328 328 328 327 326 326 325 324 324 324 325 325
328 330 331 333 334 332 332 329 329 329 329 329 329 329 329 329 329 328 328 329 329 329 329 328 327 325 324 324 323 323 323 323 324
329 328 329 330 330 329 329 329 329 329 329 329 327 325 327 328 328 329 328 328 329 328 328 326 326 324 323 322 322 322 322 321 321
333 332 333 332 332 331 329 328 329 329 329 329 329 325 326 325 325 324 326 328 328 326 324 324 324 322 321 320 320 320 320 318 317
335 334 334 333 333 333 332 329 329 330 330 330 330 329 328 327 327 323 322 320 322 321 321 321 321 320 319 319 318 318 318 316 315
336 335 334 333 334 334 333 332 330 330 330 329 329 329 329 328 327 326 321 319 318 321 319 318 319 319 319 319 318 316 315 314 313
Wind_Speed
21 22 22 24 27 25 22 20 18 17 17 16 16 16 15 15 16 17 17 17 14 13 14 13 12 13 13 14 15 16 16 17 17
21 22 24 26 26 23 21 19 17 17 16 16 17 15 15 15 16 16 16 16 14 14 14 14 13 14 14 15 15 15 15 16 16
22 24 22 23 23 22 21 19 17 17 14 15 17 15 14 14 15 15 15 14 13 13 13 13 13 13 14 14 14 14 15 15 15
22 23 22 21 21 21 20 18 16 14 14 14 14 13 14 13 13 13 13 12 12 12 12 12 12 13 13 13 13 13 14 14 14
25 23 21 21 21 21 18 16 15 13 13 12 11 10 10 10 10 10 11 11 11 11 11 11 11 11 11 11 12 12 12 12 13
23 22 21 20 20 19 17 15 15 13 11 9 7 6 7 7 8 8 8 8 9 9 10 10 10 10 10 10 10 10 11 11 12
21 19 18 18 17 16 15 14 14 14 10 7 5 5 5 4 5 6 5 5 6 7 8 9 9 9 9 8 9 9 9 10 10
20 19 18 16 15 14 13 12 11 11 9 6 4 4 5 3 2 3 3 3 3 4 6 7 7 7 7 7 8 8 8 9 8
19 18 17 15 14 12 12 11 11 9 8 6 4 3 5 5 4 2 1 1 0 1 2 3 4 5 5 5 6 6 7 7 7
18 16 15 14 13 12 11 11 10 8 7 7 5 4 5 5 6 5 4 2 2 1 1 1 0 1 2 3 4 4 6 6 7
18 16 15 13 12 11 10 10 8 6 6 6 6 6 7 7 7 7 5 5 4 4 4 4 3 3 2 1 1 2 3 4 5
19 17 14 13 12 11 11 10 9 9 9 9 10 10 8 8 9 8 7 7 6 6 6 7 6 7 6 6 5 3 3 3 2
18 19 16 13 13 12 11 11 11 10 11 10 10 10 10 11 10 10 9 9 8 7 7 6 6 8 9 9 9 10 7 5 2
17 18 16 16 16 16 15 14 13 11 11 11 12 12 12 12 12 11 12 12 11 11 8 8 7 8 9 9 10 8 11 13 11
18 18 19 18 19 18 18 16 14 12 11 11 11 12 12 12 14 13 12 11 11 10 10 10 9 9 9 10 10 8 7 10 16
17 16 15 18 19 19 18 16 14 12 10 8 9 12 14 15 16 15 14 13 12 12 12 13 11 9 9 10 12 12 9 7 8
19 19 18 18 18 17 18 18 16 11 11 5 2 3 2 1 5 12 15 12 11 13 13 12 9 9 8 9 11 11 10 9 8
20 19 17 17 17 18 18 19 18 10 9 12 5 0 3 3 5 5 4 9 10 11 10 11 10 8 7 9 10 11 11 10 8
23 23 21 19 18 19 18 18 20 13 13 12 16 14 4 2 2 1 1 4 7 9 11 10 9 8 10 10 10 10 10 9 9
17 18 18 21 18 14 16 18 25 15 15 13 7 12 13 11 7 3 5 9 12 12 12 11 10 9 8 10 11 10 10 9 9
Wind_Direction
126 127 129 128 128 128 125 119 115 114 110 97 92 94 95 97 94 90 87 84 80 76 77 76 74 71 67 66 66 67 65 65 66
132 130 130 133 135 133 127 119 115 120 112 99 93 95 94 94 92 88 85 81 81 79 80 79 77 75 73 73 72 73 70 69 68
132 131 132 138 140 139 135 128 119 123 117 105 98 92 92 92 92 89 87 88 86 84 82 83 81 80 78 78 76 75 73 72 70
136 140 142 142 144 147 143 137 127 125 124 117 107 96 93 89 91 90 88 89 88 86 84 85 83 82 81 81 80 78 76 76 74
145 148 147 148 150 152 150 146 139 131 125 123 120 106 97 91 91 89 89 91 89 88 90 88 86 85 84 83 81 79 79 78 77
152 152 152 151 153 156 157 154 152 147 139 132 128 129 114 99 93 87 87 87 83 82 86 85 88 89 86 84 83 84 85 81 81
152 152 152 153 154 155 156 155 158 161 156 146 140 161 148 117 101 82 81 88 82 77 75 76 81 85 86 86 87 86 84 84 82
160 159 159 160 162 162 166 165 163 168 169 164 154 176 195 178 134 90 73 81 85 73 70 69 72 75 85 93 94 94 93 94 89
169 170 170 173 175 177 179 179 172 174 183 194 212 211 202 218 213 197 143 75 76 75 61 65 69 73 84 96 102 109 108 102 97
174 174 178 178 180 183 185 184 189 199 205 211 226 245 234 224 226 231 230 228 249 267 272 299 31 97 87 73 88 113 115 114 110
183 185 190 193 197 194 192 193 203 221 239 234 238 248 244 245 245 244 249 247 250 253 256 260 248 253 242 227 179 136 137 128 122
197 199 202 202 203 207 211 218 232 239 240 248 255 252 254 253 243 246 247 248 253 262 266 252 249 255 243 259 252 237 200 164 147
209 209 210 204 207 211 217 231 241 243 242 251 259 260 259 257 252 250 248 252 251 253 263 271 272 275 278 274 257 241 248 230 228
212 211 215 215 219 222 223 231 243 240 242 256 264 264 268 262 256 261 254 258 261 259 258 262 271 273 283 291 289 275 241 237 222
215 223 229 230 227 228 231 232 231 243 262 264 266 266 265 268 262 264 261 260 260 254 257 255 261 267 274 291 296 302 298 257 243
210 215 214 219 220 221 222 224 228 243 251 266 278 273 273 267 263 264 264 264 263 259 250 241 238 252 273 287 293 300 302 288 266
215 221 218 217 218 219 225 227 230 232 247 237 246 314 325 3 290 265 252 252 251 250 237 221 227 236 262 275 286 289 296 299 289
217 220 224 228 228 232 237 239 240 212 232 226 227 145 245 2 9 15 252 238 240 233 213 203 214 246 274 279 279 284 290 301 299
223 227 228 220 220 228 232 246 251 244 238 247 243 238 230 207 312 35 345 245 206 201 198 215 224 241 275 283 284 288 293 291 291
214 221 233 233 231 238 246 263 239 261 259 251 249 239 245 252 229 254 206 226 220 214 225 228 226 237 256 271 277 283 288 286 286